Погода в Харденберге

Нидерланды     52°34′36″N   6°37′48″E
темп.,
°C
ветер,
м/с
пор.,
м/с
влажн.,
%
обл.,
%
осадки,
мм/ч
давл.,
гПа
погр.,
м
6 марта, сб
сб601:000ссз23850 0.0 103433
04:000ссз12860 0.0 103421
07:000сз22840 0.0 103429
10:00+4зсз236890 0.0 1034340
13:00+6ссз226093 0.0 10341027
16:00+7зсз225784 0.1 10321128
19:00+4зсз367192 0.1 1032215
22:00+1ссз228661 0.0 103130
7 марта, вс
вс701:000сз128930 0.0 103021
04:00−1з22870 0.0 102825
07:00−1з23900 0.0 102777
10:00+4зсз35719 0.0 1026714
13:00+5сз456541 0.0 10251014
16:00+5зсз4570100 0.0 1023784
19:00+3з3780100 0.1 1023285
22:00+3зсз3787100 0.1 1023232
8 марта, пн
пн801:00+3з3690100 0.1 1023220
04:00+2з3691100 0.0 1022218
07:00+1зюз359699 0.0 1022124
10:00+4зюз3583100 0.0 1022382
13:00+4зюз3586100 0.0 1022497
16:00+3юз4696100 0.4 1021332
19:00+4юз4796100 1.8 1020371
22:00+4юз5896100 1.3 1019339
9 марта, вт
вт901:00+4зюз5995100 3.7 1018414
04:00+4зюз5993100 1.9 1017395
07:00+4зюз51093100 2.1 1017318
10:00+6зюз598690 0.1 1017480
13:00+8з587694 0.1 1018840
16:00+8зсз577489 0.3 1017891
19:00+5з238763 0.3 101885
22:00+4юз248967 0.0 101988
10 марта, ср
ср1001:00+3ююз4108964 0.0 1018265
04:00+3ююз51187100 0.0 1016353
07:00+4ююз71383100 0.0 1015516
10:00+6ююз91475100 0.0 1014818
13:00+7ююз91572100 0.1 1011940
16:00+6ююз101790100 2.8 1008899
19:00+7ююз101790100 5.3 1006774
22:00+8ююз101893100 1.4 1004749